Terug naar catalogus

SL-16 DEB

ActiefPO
NORAD 25401·DEBRIS·🇷🇺 Russia

Gelanceerd Jul 10, 1998 vanaf Baikonur Cosmodrome

Loading…

Volgende Passages (komende 24 uur)

TLE

VersSource: Space-Track

Epoch: Sep 14, 2026, 07:15 UTC

1 25401U 98043H   26257.30249737 -.00000196  00000-0 -10560-3 0  9996
2 25401  98.5600  13.9158 0161799  89.3324 299.6983 13.94864665432974

Volg SL-16 DEB in realtime met AllMySat

Download on the App Store